AFR452 LFPO-LFKB

Flight info

Callsign AFR452
Flight time 1h 24m
Altitude 35000
Route LATRA DCT LAMUT DCT UTUVA DCT TITVA DCT NOQAS DCT OTROT DCT RETNO DCT KOLON DCT NARTI UP991 NIRDO
Aircraft A320/M-SDE3FGHIRWY/LB1

Departure

Time 2026-04-21 19:28
Airport Paris-Orly Airport (LFPO)

Arrival

Time 2026-04-21 20:52
Airport Bastia-Poretta International airport (LFKB)
Time Latitude Longitude Altitude Speed Heading
2026-04-21 18:55 48.73014 2.35832 294 ft 0 kts 133°
2026-04-21 19:10 48.73025 2.35815 295 ft 4 kts 133°
2026-04-21 19:10 48.73043 2.35786 293 ft 4 kts 133°
2026-04-21 19:10 48.73062 2.35756 295 ft 4 kts 135°
2026-04-21 19:11 48.73081 2.35734 291 ft 4 kts 178°
2026-04-21 19:11 48.73095 2.35743 291 ft 2 kts 237°
2026-04-21 19:11 48.73109 2.35776 291 ft 4 kts 237°
2026-04-21 19:11 48.73124 2.35810 295 ft 4 kts 237°
2026-04-21 19:12 48.73133 2.35833 295 ft 4 kts 237°
2026-04-21 19:12 48.73153 2.35879 294 ft 4 kts 237°
2026-04-21 19:12 48.73168 2.35913 293 ft 4 kts 236°
2026-04-21 19:12 48.73183 2.35947 291 ft 4 kts 238°
2026-04-21 19:13 48.73196 2.35982 291 ft 4 kts 240°
2026-04-21 19:13 48.73208 2.36008 291 ft 4 kts 179°
2026-04-21 19:13 48.73224 2.35994 295 ft 4 kts 134°
2026-04-21 19:13 48.73238 2.35962 291 ft 4 kts 101°
2026-04-21 19:14 48.73238 2.35923 295 ft 4 kts 70°
2026-04-21 19:14 48.73225 2.35887 291 ft 4 kts 52°
2026-04-21 19:14 48.73207 2.35857 291 ft 4 kts 43°
2026-04-21 19:14 48.73187 2.35830 294 ft 4 kts 38°
2026-04-21 19:15 48.73165 2.35806 296 ft 4 kts 33°
2026-04-21 19:15 48.73142 2.35785 295 ft 4 kts 25°
2026-04-21 19:15 48.73118 2.35773 291 ft 4 kts 351°
2026-04-21 19:15 48.73106 2.35768 292 ft 3 kts 252°
2026-04-21 19:16 48.73105 2.35766 295 ft 0 kts 237°
2026-04-21 19:18 48.73097 2.35748 293 ft 7 kts 237°
2026-04-21 19:18 48.73074 2.35692 294 ft 6 kts 238°
2026-04-21 19:19 48.73056 2.35648 294 ft 4 kts 237°
2026-04-21 19:19 48.73042 2.35617 291 ft 3 kts 236°
2026-04-21 19:19 48.73028 2.35587 295 ft 3 kts 232°
2026-04-21 19:19 48.73013 2.35563 291 ft 5 kts 222°
2026-04-21 19:20 48.72968 2.35532 291 ft 8 kts 193°
2026-04-21 19:20 48.72920 2.35531 295 ft 6 kts 172°
2026-04-21 19:20 48.72882 2.35545 291 ft 5 kts 165°
2026-04-21 19:20 48.72861 2.35554 294 ft 4 kts 163°
2026-04-21 19:21 48.72830 2.35568 293 ft 7 kts 162°
2026-04-21 19:21 48.72738 2.35609 293 ft 10 kts 164°
2026-04-21 19:21 48.72673 2.35636 295 ft 9 kts 165°
2026-04-21 19:21 48.72619 2.35659 295 ft 7 kts 165°
2026-04-21 19:22 48.72574 2.35678 294 ft 6 kts 164°
2026-04-21 19:22 48.72533 2.35695 295 ft 11 kts 165°
2026-04-21 19:22 48.72470 2.35678 293 ft 9 kts 223°
2026-04-21 19:22 48.72426 2.35627 293 ft 7 kts 197°
2026-04-21 19:23 48.72382 2.35630 293 ft 6 kts 169°
2026-04-21 19:23 48.72347 2.35638 292 ft 5 kts 179°
2026-04-21 19:23 48.72289 2.35615 292 ft 9 kts 199°
2026-04-21 19:23 48.72230 2.35603 291 ft 8 kts 175°
2026-04-21 19:24 48.72181 2.35620 293 ft 7 kts 164°
2026-04-21 19:24 48.72142 2.35638 291 ft 5 kts 163°
2026-04-21 19:24 48.72110 2.35654 291 ft 4 kts 160°
2026-04-21 19:24 48.72086 2.35670 291 ft 3 kts 154°
2026-04-21 19:25 48.72081 2.35674 291 ft 0 kts 150°
2026-04-21 19:26 48.72050 2.35711 292 ft 14 kts 133°
2026-04-21 19:26 48.72015 2.35789 292 ft 9 kts 122°
2026-04-21 19:26 48.71977 2.35896 291 ft 14 kts 114°
2026-04-21 19:26 48.71970 2.36012 291 ft 0 kts 75°
2026-04-21 19:27 48.71974 2.36036 290 ft 18 kts 75°
2026-04-21 19:27 48.72090 2.36641 297 ft 93 kts 73°
2026-04-21 19:27 48.72307 2.37820 294 ft 145 kts 74°
2026-04-21 19:27 48.72618 2.39444 537 ft 167 kts 75°
2026-04-21 19:28 48.72929 2.41165 1208 ft 167 kts 71°
2026-04-21 19:28 48.73234 2.42839 1883 ft 167 kts 71°
2026-04-21 19:28 48.73555 2.44578 2339 ft 180 kts 70°
2026-04-21 19:28 48.73922 2.46544 2576 ft 203 kts 71°
2026-04-21 19:29 48.74139 2.48815 2841 ft 231 kts 81°
2026-04-21 19:29 48.74252 2.51374 3240 ft 254 kts 83°
2026-04-21 19:29 48.74337 2.54101 3957 ft 263 kts 84°
2026-04-21 19:29 48.74204 2.56894 4763 ft 273 kts 106°
2026-04-21 19:30 48.73130 2.59288 5527 ft 284 kts 141°
2026-04-21 19:30 48.71365 2.60655 6329 ft 288 kts 162°
2026-04-21 19:30 48.69402 2.61399 7108 ft 292 kts 169°
2026-04-21 19:30 48.67393 2.61966 7917 ft 295 kts 170°
2026-04-21 19:31 48.65342 2.62213 8657 ft 298 kts 185°
2026-04-21 19:31 48.63299 2.61689 9382 ft 301 kts 198°
2026-04-21 19:31 48.61345 2.60525 10073 ft 303 kts 211°
2026-04-21 19:31 48.59443 2.59055 10572 ft 316 kts 210°
2026-04-21 19:32 48.57444 2.57521 10766 ft 339 kts 210°
2026-04-21 19:32 48.55273 2.55860 11012 ft 358 kts 209°
2026-04-21 19:32 48.53027 2.54146 11568 ft 365 kts 209°
2026-04-21 19:32 48.50711 2.52378 12205 ft 371 kts 210°
2026-04-21 19:33 48.49174 2.51202 12511 ft 377 kts 210°
2026-04-21 19:33 48.45983 2.48851 13279 ft 387 kts 204°
2026-04-21 19:33 48.43405 2.47575 13877 ft 393 kts 199°
2026-04-21 19:33 48.40780 2.46380 14468 ft 397 kts 199°
2026-04-21 19:34 48.38156 2.45194 15049 ft 401 kts 199°
2026-04-21 19:34 48.35437 2.43966 15614 ft 405 kts 199°
2026-04-21 19:34 48.32722 2.42770 16166 ft 409 kts 195°
2026-04-21 19:34 48.29926 2.42122 16689 ft 415 kts 184°
2026-04-21 19:35 48.27031 2.42267 17207 ft 419 kts 171°
2026-04-21 19:35 48.21411 2.44721 18215 ft 425 kts 158°
2026-04-21 19:35 48.18602 2.46231 18597 ft 433 kts 158°
2026-04-21 19:36 48.15751 2.47754 19035 ft 437 kts 158°
2026-04-21 19:36 48.12879 2.49282 19181 ft 439 kts 158°
2026-04-21 19:36 48.09999 2.50805 19212 ft 439 kts 158°
2026-04-21 19:36 48.07119 2.52316 19209 ft 439 kts 158°
2026-04-21 19:37 48.04224 2.53780 19210 ft 439 kts 159°
2026-04-21 19:37 48.01312 2.55207 19550 ft 442 kts 160°
2026-04-21 19:37 47.98379 2.56625 20085 ft 445 kts 160°
2026-04-21 19:37 47.95422 2.58056 20577 ft 448 kts 159°
2026-04-21 19:38 47.92442 2.59505 21053 ft 452 kts 159°
2026-04-21 19:38 47.89447 2.60971 21522 ft 455 kts 159°
2026-04-21 19:38 47.86431 2.62451 21960 ft 458 kts 159°
2026-04-21 19:38 47.83395 2.63939 22394 ft 461 kts 159°
2026-04-21 19:39 47.80340 2.65435 22808 ft 464 kts 159°
2026-04-21 19:39 47.77265 2.66940 23205 ft 467 kts 159°
2026-04-21 19:39 47.74165 2.68454 23594 ft 470 kts 159°
2026-04-21 19:39 47.71047 2.69973 23973 ft 473 kts 159°
2026-04-21 19:40 47.67912 2.71496 24354 ft 475 kts 161°
2026-04-21 19:40 47.64767 2.73018 24708 ft 477 kts 165°
2026-04-21 19:40 47.61609 2.74546 25210 ft 474 kts 167°
2026-04-21 19:40 47.58522 2.76057 26095 ft 458 kts 168°
2026-04-21 19:41 47.55539 2.77297 27025 ft 432 kts 174°
2026-04-21 19:41 47.52610 2.77376 27897 ft 414 kts 180°
2026-04-21 19:41 47.49766 2.76825 28555 ft 412 kts 181°
2026-04-21 19:41 47.46945 2.76086 29086 ft 410 kts 183°
2026-04-21 19:42 47.44144 2.75411 29574 ft 406 kts 184°
2026-04-21 19:42 47.41351 2.74933 29941 ft 405 kts 184°
2026-04-21 19:42 47.38523 2.74660 30181 ft 408 kts 181°
2026-04-21 19:42 47.35688 2.74344 30489 ft 410 kts 181°
2026-04-21 19:43 47.32840 2.73819 30805 ft 415 kts 181°
2026-04-21 19:43 47.29981 2.73128 31109 ft 417 kts 182°
2026-04-21 19:43 47.27120 2.72393 31414 ft 417 kts 182°
2026-04-21 19:43 47.24259 2.71746 31719 ft 413 kts 182°
2026-04-21 19:44 47.21445 2.71842 32014 ft 401 kts 170°
2026-04-21 19:44 47.18732 2.72757 32310 ft 400 kts 168°
2026-04-21 19:44 47.16063 2.73951 32601 ft 402 kts 168°
2026-04-21 19:44 47.13514 2.75746 32900 ft 416 kts 152°
2026-04-21 19:45 47.11158 2.78257 33189 ft 418 kts 149°
2026-04-21 19:45 47.08809 2.80781 33447 ft 420 kts 146°
2026-04-21 19:45 47.06437 2.83328 33562 ft 426 kts 145°
2026-04-21 19:45 47.04033 2.85908 33732 ft 429 kts 143°
2026-04-21 19:46 47.01625 2.88492 33973 ft 430 kts 140°
2026-04-21 19:46 46.99205 2.91087 34228 ft 431 kts 140°
2026-04-21 19:46 46.96786 2.93680 34477 ft 431 kts 140°
2026-04-21 19:46 46.94363 2.96275 34735 ft 431 kts 140°
2026-04-21 19:47 46.91946 2.98861 34975 ft 431 kts 140°
2026-04-21 19:47 46.89517 3.01460 35225 ft 431 kts 140°
2026-04-21 19:47 46.87111 3.04031 35473 ft 430 kts 140°
2026-04-21 19:47 46.84695 3.06611 35685 ft 430 kts 140°
2026-04-21 19:48 46.82281 3.09188 35858 ft 431 kts 140°
2026-04-21 19:48 46.79859 3.11771 36059 ft 432 kts 140°
2026-04-21 19:48 46.77399 3.14295 36214 ft 434 kts 148°
2026-04-21 19:48 46.74616 3.16034 36353 ft 438 kts 167°
2026-04-21 19:49 46.71592 3.16351 36454 ft 436 kts 191°
2026-04-21 19:49 46.68733 3.15054 36527 ft 429 kts 213°
2026-04-21 19:49 46.66139 3.12888 36596 ft 432 kts 208°
2026-04-21 19:49 46.63273 3.11516 36690 ft 438 kts 189°
2026-04-21 19:50 46.61254 3.11306 36752 ft 440 kts 179°
2026-04-21 19:50 46.57161 3.11701 36888 ft 442 kts 171°
2026-04-21 19:50 46.54119 3.12455 37030 ft 443 kts 165°
2026-04-21 19:50 46.51244 3.13964 37169 ft 439 kts 148°
2026-04-21 19:51 46.48595 3.16191 37211 ft 442 kts 147°
2026-04-21 19:51 46.43274 3.20831 37210 ft 450 kts 146°
2026-04-21 19:52 46.37866 3.25564 37211 ft 459 kts 147°
2026-04-21 19:52 46.32341 3.30368 37211 ft 467 kts 147°
2026-04-21 19:53 46.26729 3.35230 37211 ft 474 kts 147°
2026-04-21 19:53 46.21028 3.40153 37210 ft 480 kts 147°
2026-04-21 19:54 46.15287 3.45096 37211 ft 481 kts 147°
2026-04-21 19:54 46.09545 3.50049 37209 ft 481 kts 147°
2026-04-21 19:55 46.03800 3.54992 37212 ft 481 kts 147°
2026-04-21 19:55 45.98044 3.59919 37216 ft 482 kts 147°
2026-04-21 19:56 45.92284 3.64840 37220 ft 482 kts 147°
2026-04-21 19:56 45.86518 3.69753 37223 ft 482 kts 147°
2026-04-21 19:57 45.80749 3.74655 37222 ft 482 kts 147°
2026-04-21 19:57 45.74983 3.79537 37225 ft 482 kts 147°
2026-04-21 19:58 45.69212 3.84415 37224 ft 482 kts 147°
2026-04-21 19:58 45.63438 3.89289 37225 ft 482 kts 147°
2026-04-21 19:59 45.57661 3.94161 37227 ft 482 kts 147°
2026-04-21 19:59 45.51885 3.99022 37223 ft 482 kts 147°
2026-04-21 20:00 45.46108 4.03862 37223 ft 482 kts 147°
2026-04-21 20:00 45.40325 4.08690 37226 ft 482 kts 147°
2026-04-21 20:01 45.34545 4.13512 37220 ft 481 kts 147°
2026-04-21 20:01 45.28767 4.18316 37222 ft 481 kts 147°
2026-04-21 20:02 45.23821 4.22701 37218 ft 479 kts 139°
2026-04-21 20:02 45.19361 4.29047 37216 ft 471 kts 122°
2026-04-21 20:03 45.15511 4.36537 37217 ft 470 kts 122°
2026-04-21 20:03 45.11642 4.44021 37214 ft 471 kts 123°
2026-04-21 20:04 45.07521 4.51250 37216 ft 473 kts 127°
2026-04-21 20:04 45.05536 4.54928 37212 ft 468 kts 116°
2026-04-21 20:04 45.03895 4.58884 37214 ft 467 kts 116°
2026-04-21 20:05 45.00654 4.66841 37214 ft 467 kts 115°
2026-04-21 20:05 44.97421 4.74798 37215 ft 467 kts 116°
2026-04-21 20:06 44.94163 4.82742 37216 ft 467 kts 116°
2026-04-21 20:06 44.90890 4.90671 37217 ft 468 kts 116°
2026-04-21 20:07 44.87614 4.98594 37219 ft 468 kts 116°
2026-04-21 20:07 44.84333 5.06521 37220 ft 468 kts 116°
2026-04-21 20:08 44.81050 5.14426 37220 ft 468 kts 116°
2026-04-21 20:08 44.77733 5.22378 37220 ft 468 kts 116°
2026-04-21 20:09 44.74455 5.30225 37219 ft 468 kts 116°
2026-04-21 20:09 44.71155 5.38118 37219 ft 468 kts 116°
2026-04-21 20:10 44.67847 5.45999 37223 ft 468 kts 116°
2026-04-21 20:10 44.64507 5.53919 37219 ft 468 kts 116°
2026-04-21 20:11 44.61183 5.61782 37221 ft 468 kts 116°
2026-04-21 20:11 44.57879 5.69580 37221 ft 468 kts 116°
2026-04-21 20:12 44.54545 5.77433 37221 ft 468 kts 116°
2026-04-21 20:12 44.51210 5.85263 37222 ft 468 kts 116°
2026-04-21 20:13 44.47861 5.93097 37221 ft 468 kts 117°
2026-04-21 20:13 44.44517 6.00913 37220 ft 468 kts 117°
2026-04-21 20:14 44.41159 6.08725 37222 ft 468 kts 117°
2026-04-21 20:14 44.37797 6.16524 37220 ft 468 kts 117°
2026-04-21 20:15 44.34434 6.24316 37220 ft 468 kts 117°
2026-04-21 20:15 44.31065 6.32104 37220 ft 468 kts 117°
2026-04-21 20:16 44.27693 6.39876 37222 ft 468 kts 117°
2026-04-21 20:16 44.24304 6.47646 37222 ft 468 kts 117°
2026-04-21 20:17 44.20919 6.55401 37221 ft 468 kts 117°
2026-04-21 20:17 44.17528 6.63153 37221 ft 468 kts 117°
2026-04-21 20:18 44.14685 6.69635 37219 ft 468 kts 117°
2026-04-21 20:18 44.10731 6.78622 37219 ft 469 kts 117°
2026-04-21 20:19 44.07298 6.86405 37220 ft 469 kts 117°
2026-04-21 20:19 44.03876 6.94114 37220 ft 468 kts 117°
2026-04-21 20:20 44.00457 7.01819 37221 ft 468 kts 117°
2026-04-21 20:20 43.97041 7.09528 37222 ft 469 kts 117°
2026-04-21 20:21 43.93613 7.17214 37220 ft 469 kts 117°
2026-04-21 20:21 43.90178 7.24887 37219 ft 469 kts 117°
2026-04-21 20:22 43.86732 7.32572 37223 ft 469 kts 117°
2026-04-21 20:22 43.81562 7.44060 37221 ft 469 kts 118°
2026-04-21 20:23 43.78106 7.51715 37223 ft 469 kts 118°
2026-04-21 20:23 43.74646 7.59361 37216 ft 469 kts 118°
2026-04-21 20:24 43.72912 7.63182 36972 ft 469 kts 118°
2026-04-21 20:24 43.71177 7.66995 36723 ft 469 kts 118°
2026-04-21 20:24 43.69440 7.70808 36474 ft 469 kts 118°
2026-04-21 20:24 43.67704 7.74618 36225 ft 469 kts 117°
2026-04-21 20:25 43.65988 7.78385 35980 ft 469 kts 117°
2026-04-21 20:25 43.64248 7.82201 35731 ft 470 kts 117°
2026-04-21 20:25 43.62503 7.86018 35479 ft 471 kts 117°
2026-04-21 20:25 43.60748 7.89853 34615 ft 476 kts 117°
2026-04-21 20:26 43.58974 7.93735 33629 ft 482 kts 118°
2026-04-21 20:26 43.57172 7.97676 32630 ft 488 kts 127°
2026-04-21 20:26 43.55362 8.01638 32186 ft 460 kts 128°
2026-04-21 20:26 43.53794 8.05163 32654 ft 406 kts 128°
2026-04-21 20:27 43.52443 8.08297 32888 ft 368 kts 127°
2026-04-21 20:27 43.51075 8.11536 33267 ft 345 kts 122°
2026-04-21 20:27 43.49981 8.14145 32878 ft 344 kts 124°
2026-04-21 20:27 43.48777 8.17014 32187 ft 350 kts 128°
2026-04-21 20:28 43.47637 8.19791 33024 ft 311 kts 127°
2026-04-21 20:28 43.46597 8.22378 32927 ft 326 kts 123°
2026-04-21 20:28 43.45376 8.25348 31893 ft 370 kts 127°
2026-04-21 20:28 43.44095 8.28395 31777 ft 382 kts 126°
2026-04-21 20:29 43.42707 8.31616 30890 ft 397 kts 119°
2026-04-21 20:29 43.41200 8.34872 29783 ft 414 kts 117°
2026-04-21 20:29 43.39454 8.38192 28893 ft 435 kts 120°
2026-04-21 20:29 43.37690 8.41462 28598 ft 416 kts 119°
2026-04-21 20:30 43.36097 8.44706 28040 ft 406 kts 123°
2026-04-21 20:30 43.34435 8.47785 27481 ft 396 kts 129°
2026-04-21 20:30 43.32784 8.50788 26677 ft 395 kts 133°
2026-04-21 20:30 43.31130 8.53893 25549 ft 411 kts 132°
2026-04-21 20:31 43.29462 8.57195 24689 ft 435 kts 123°
2026-04-21 20:31 43.27760 8.60760 24355 ft 451 kts 118°
2026-04-21 20:31 43.26082 8.64395 24172 ft 448 kts 116°
2026-04-21 20:31 43.24438 8.67988 24180 ft 445 kts 116°
2026-04-21 20:32 43.22784 8.71598 23354 ft 449 kts 115°
2026-04-21 20:32 43.21110 8.75218 22641 ft 449 kts 115°
2026-04-21 20:32 43.19428 8.78807 22025 ft 446 kts 116°
2026-04-21 20:32 43.17746 8.82360 21428 ft 443 kts 116°
2026-04-21 20:33 43.16070 8.85880 20873 ft 439 kts 116°
2026-04-21 20:33 43.14408 8.89361 20316 ft 435 kts 116°
2026-04-21 20:33 43.12758 8.92819 19706 ft 433 kts 116°
2026-04-21 20:33 43.11118 8.96269 19104 ft 431 kts 116°
2026-04-21 20:34 43.09490 8.99702 18508 ft 429 kts 116°
2026-04-21 20:34 43.07869 9.03117 17902 ft 427 kts 117°
2026-04-21 20:34 43.06262 9.06518 17302 ft 424 kts 116°
2026-04-21 20:34 43.04980 9.10087 16699 ft 414 kts 104°
2026-04-21 20:35 43.04076 9.13805 16106 ft 410 kts 102°
2026-04-21 20:35 43.03190 9.17499 15500 ft 409 kts 102°
2026-04-21 20:35 43.02305 9.21180 14898 ft 406 kts 103°
2026-04-21 20:35 43.01422 9.24832 14299 ft 404 kts 103°
2026-04-21 20:36 43.00540 9.28468 13696 ft 402 kts 103°
2026-04-21 20:36 42.99667 9.32079 13090 ft 399 kts 103°
2026-04-21 20:36 42.98802 9.35660 12492 ft 395 kts 103°
2026-04-21 20:36 42.97946 9.39201 12040 ft 388 kts 103°
2026-04-21 20:37 42.97114 9.42629 11915 ft 372 kts 104°
2026-04-21 20:37 42.96316 9.45909 11787 ft 356 kts 104°
2026-04-21 20:37 42.95546 9.49054 11646 ft 343 kts 104°
2026-04-21 20:37 42.94796 9.52109 11341 ft 336 kts 104°
2026-04-21 20:38 42.94061 9.55100 11051 ft 329 kts 105°
2026-04-21 20:38 42.92953 9.57807 10745 ft 331 kts 131°
2026-04-21 20:38 42.91048 9.59501 10449 ft 329 kts 162°
2026-04-21 20:38 42.88807 9.59802 10145 ft 322 kts 187°
2026-04-21 20:39 42.86644 9.59191 9849 ft 315 kts 199°
2026-04-21 20:39 42.84591 9.58224 9548 ft 310 kts 202°
2026-04-21 20:39 42.82505 9.57588 9243 ft 308 kts 182°
2026-04-21 20:39 42.80442 9.58159 8944 ft 302 kts 151°
2026-04-21 20:40 42.78848 9.59919 8645 ft 293 kts 124°
2026-04-21 20:40 42.77926 9.62317 8347 ft 282 kts 102°
2026-04-21 20:40 42.77677 9.64896 8038 ft 271 kts 83°
2026-04-21 20:40 42.78045 9.67369 7661 ft 263 kts 64°
2026-04-21 20:41 42.78723 9.69087 7365 ft 257 kts 49°
2026-04-21 20:41 42.79795 9.70617 7031 ft 251 kts 34°
2026-04-21 20:41 42.81288 9.71778 6663 ft 246 kts 19°
2026-04-21 20:41 42.82894 9.72538 6281 ft 243 kts 14°
2026-04-21 20:42 42.84503 9.73166 6053 ft 234 kts 13°
2026-04-21 20:42 42.86016 9.73724 6114 ft 220 kts 12°
2026-04-21 20:42 42.87483 9.74257 6131 ft 217 kts 11°
2026-04-21 20:42 42.88973 9.74407 6136 ft 214 kts 353°
2026-04-21 20:43 42.90422 9.73972 6138 ft 214 kts 339°
2026-04-21 20:43 42.91739 9.73040 6138 ft 214 kts 326°
2026-04-21 20:43 42.92841 9.71660 6138 ft 217 kts 311°
2026-04-21 20:43 42.93646 9.69906 6138 ft 220 kts 297°
2026-04-21 20:44 42.94076 9.67913 6138 ft 225 kts 282°
2026-04-21 20:44 42.94085 9.65766 6138 ft 230 kts 266°
2026-04-21 20:44 42.93628 9.63626 6138 ft 236 kts 249°
2026-04-21 20:44 42.92734 9.61763 6138 ft 241 kts 231°
2026-04-21 20:45 42.91433 9.60294 6138 ft 246 kts 213°
2026-04-21 20:45 42.89836 9.59347 6138 ft 249 kts 201°
2026-04-21 20:45 42.88181 9.58643 6138 ft 250 kts 198°
2026-04-21 20:45 42.86522 9.58022 6138 ft 250 kts 197°
2026-04-21 20:46 42.84814 9.57404 6075 ft 252 kts 197°
2026-04-21 20:46 42.83168 9.56613 5720 ft 251 kts 206°
2026-04-21 20:46 42.81593 9.55596 5316 ft 249 kts 210°
2026-04-21 20:46 42.80096 9.54540 4923 ft 243 kts 210°
2026-04-21 20:47 42.78610 9.53480 4513 ft 231 kts 211°
2026-04-21 20:47 42.77223 9.52504 4141 ft 225 kts 210°
2026-04-21 20:47 42.75849 9.51549 3761 ft 219 kts 210°
2026-04-21 20:47 42.74511 9.50629 3420 ft 211 kts 210°
2026-04-21 20:48 42.73216 9.49749 3027 ft 205 kts 210°
2026-04-21 20:48 42.71988 9.48923 2865 ft 188 kts 209°
2026-04-21 20:48 42.70879 9.48182 2770 ft 169 kts 209°
2026-04-21 20:48 42.69850 9.47490 2739 ft 162 kts 209°
2026-04-21 20:49 42.68829 9.46862 2742 ft 161 kts 200°
2026-04-21 20:49 42.67723 9.46575 2671 ft 164 kts 184°
2026-04-21 20:49 42.66604 9.46629 2419 ft 159 kts 177°
2026-04-21 20:49 42.65510 9.46708 2163 ft 156 kts 177°
2026-04-21 20:50 42.64428 9.46785 1946 ft 155 kts 178°
2026-04-21 20:50 42.63352 9.46861 1727 ft 155 kts 178°
2026-04-21 20:50 42.62280 9.46935 1509 ft 155 kts 178°
2026-04-21 20:50 42.61205 9.47010 1297 ft 154 kts 178°
2026-04-21 20:51 42.60138 9.47086 1080 ft 153 kts 177°
2026-04-21 20:51 42.59084 9.47163 858 ft 150 kts 177°
2026-04-21 20:51 42.58055 9.47336 553 ft 149 kts 171°
2026-04-21 20:51 42.57039 9.47642 219 ft 148 kts 163°
2026-04-21 20:52 42.56068 9.48055 40 ft 145 kts 163°
2026-04-21 20:52 42.55233 9.48398 37 ft 93 kts 162°
2026-04-21 20:52 42.54765 9.48590 33 ft 47 kts 163°
2026-04-21 20:52 42.54505 9.48693 33 ft 37 kts 163°
2026-04-21 20:53 42.54305 9.48775 34 ft 20 kts 163°
2026-04-21 20:53 42.54235 9.48796 35 ft 8 kts 179°
2026-04-21 20:53 42.54184 9.48775 35 ft 7 kts 209°
2026-04-21 20:53 42.54151 9.48737 34 ft 6 kts 230°
2026-04-21 20:54 42.54131 9.48675 35 ft 9 kts 256°
2026-04-21 20:54 42.54134 9.48598 35 ft 7 kts 285°
2026-04-21 20:54 42.54158 9.48542 35 ft 6 kts 309°
2026-04-21 20:54 42.54187 9.48508 35 ft 5 kts 329°
2026-04-21 20:55 42.54246 9.48475 35 ft 15 kts 345°
2026-04-21 20:55 42.54362 9.48429 35 ft 17 kts 343°
2026-04-21 20:55 42.54482 9.48418 35 ft 18 kts 354°
2026-04-21 20:55 42.54597 9.48375 35 ft 15 kts 342°
2026-04-21 20:56 42.54657 9.48321 35 ft 10 kts 300°
2026-04-21 20:56 42.54671 9.48252 35 ft 1 kts 282°
2026-04-21 20:56 42.54673 9.48241 35 ft 3 kts 284°
2026-04-21 20:56 42.54675 9.48232 35 ft 0 kts 285°